W9GWP Weather Reports


Display with metric or nautical units.
time (UTC)temp
F
wind
direction
speed
MPH
gust
MPH
rain 1hr
in
rain 24hr
in
rain mn
in
humidity
%
barometer
mb
20260504033647 58 240 0.0 4.0 0.00 0.00 0.00 67 1034.6
20260504032144 59 246 0.0 2.0 0.00 0.00 0.00 66 1034.5
20260504030640 59 187 0.0 2.0 0.00 0.00 0.00 66 1034.6
20260504025136 59 180 0.0 2.0 0.00 0.00 0.00 65 1034.8
20260504023633 57 246 0.0 2.0 0.00 0.00 0.00 68 1034.6
20260504022133 58 240 0.0 0.0 0.00 0.00 0.00 67 1035.0
20260504020630 57 240 1.0 1.0 0.00 0.00 0.00 68 1034.6
20260504015125 57 246 0.0 0.0 0.00 0.00 0.00 68 1034.5
20260504013621 59 246 0.0 0.0 0.00 0.00 0.00 65 1034.8
20260504012120 61 246 0.0 0.0 0.00 0.00 0.00 61 1034.3
20260504010620 63 215 0.0 2.0 0.00 0.00 0.00 56 1034.0
20260504005116 65 209 0.0 3.0 0.00 0.00 0.00 53 1033.7
20260504003613 66 175 2.0 7.0 0.00 0.00 0.00 51 1034.0
20260504002110 67 251 5.0 5.0 0.00 0.00 0.00 49 1034.1
20260504000607 67 202 3.0 9.0 0.00 0.00 0.00 48 1033.9
20260503235104 68 194 5.0 9.0 0.00 0.00 0.00 47 1034.2
20260503233602 69 220 5.0 6.0 0.00 0.00 0.00 45 1033.9
20260503232059 69 330 2.0 16.0 0.00 0.00 0.00 45 1034.1
20260503230555 69 234 9.0 15.0 0.00 0.00 0.00 44 1034.3
20260503225050 69 228 7.0 16.0 0.00 0.00 0.00 44 1034.5
20260503223550 69 223 4.0 7.0 0.00 0.00 0.00 45 1034.4
20260503222047 68 164 5.0 16.0 0.00 0.00 0.00 46 1034.5
20260503220543 67 68 2.0 7.0 0.00 0.00 0.00 45 1034.8
20260503215040 68 252 4.0 13.0 0.00 0.00 0.00 45 1034.5
20260503213539 67 254 13.0 16.0 0.00 0.00 0.00 45 1035.0
20260503212036 67 180 6.0 12.0 0.00 0.00 0.00 46 1035.0
20260503210531 66 184 6.0 21.0 0.00 0.00 0.00 46 1035.4
20260503205026 66 201 6.0 15.0 0.00 0.00 0.00 45 1035.6
20260503203523 65 203 4.0 18.0 0.00 0.00 0.00 45 1036.3
20260503202021 64 200 3.0 12.0 0.00 0.00 0.00 51 1036.3
20260503200518 64 263 4.0 20.0 0.00 0.00 0.00 52 1036.8
20260503195015 62 180 4.0 22.0 0.00 0.00 0.00 53 1037.0
20260503193514 62 249 7.0 10.0 0.00 0.00 0.00 53 1037.4
20260503192014 62 144 6.0 10.0 0.00 0.00 0.00 52 1037.3
20260503190510 62 194 2.0 10.0 0.00 0.00 0.00 50 1037.4
20260503185009 61 228 2.0 11.0 0.00 0.00 0.00 51 1037.5
20260503183504 60 193 5.0 20.0 0.00 0.00 0.00 52 1037.4
20260503182003 60 205 3.0 11.0 0.00 0.00 0.00 54 1037.7
20260503180500 59 199 2.0 19.0 0.00 0.00 0.00 54 1038.1
20260503174956 59 198 3.0 11.0 0.00 0.00 0.00 56 1038.3
20260503173451 58 214 5.0 12.0 0.00 0.00 0.00 60 1038.8
20260503171948 57 232 15.0 15.0 0.00 0.00 0.00 62 1039.6
20260503170444 55 195 5.0 11.0 0.00 0.00 0.00 67 1040.0
20260503150420 55 226 13.0 13.0 0.00 0.00 0.00 60 1041.2
20260503130356 51 206 3.0 15.0 0.00 0.00 0.00 60 1042.0
20260503110337 48 217 8.0 9.0 0.00 0.00 0.00 60 1041.8
20260503090320 49 78 1.0 10.0 0.00 0.00 0.00 55 1042.7
20260503080311 47 222 3.0 6.0 0.00 0.00 0.00 58 1042.8
20260503071758 45 210 2.0 5.0 0.00 0.00 0.00 63 1042.9
20260503070255 44 169 0.0 2.0 0.00 0.00 0.00 64 1042.9
20260503060250 43 180 0.0 2.0 0.00 0.00 0.00 67 1043.4
20260503054749 42 120 0.0 0.0 0.00 0.00 0.00 71 1043.7
20260503053248 42 106 0.0 0.0 0.00 0.00 0.00 71 1044.0
20260503051748 43 106 0.0 1.0 0.00 0.00 0.00 69 1043.8
20260503050244 43 105 0.0 2.0 0.00 0.00 0.00 69 1044.2
20260503044741 42 165 0.0 0.0 0.00 0.00 0.00 71 1044.2
20260503043239 41 106 0.0 0.0 0.00 0.00 0.00 73 1044.1
20260503041739 42 165 0.0 0.0 0.00 0.00 0.00 72 1044.1
20260503040238 43 165 0.0 0.0 0.00 0.00 0.00 71 1044.3
20260503034735 42 168 0.0 0.0 0.00 0.00 0.00 70 1044.2